Starlink 5674

operational
NORAD ID: 55465 Int'l Des: 2023-015 Owner: SPXS Country: US Constellation: starlink
LEOCIRCULAR

关于 Starlink 5674

正在加载描述...

实时位置

正在加载3D地球...

即将过境

高度历史

Altitude vs Time

uPlot chart will show altitude changes over time

两行轨道根数

1 55465U 23015S 25302.31965027 -.00000332 00000-0 -94678-5 0 9990
2 55465 43.0037 319.7239 0001346 270.2219 89.8469 15.02531500150995
Epoch: Oct 29, 2025 • Age: 43 hours

当前状态

高度 561.0 km
速度 7.58 km/s
星下点 -13.20°S, 144.1°W
发射日期 Feb 2, 2023
运行时间 2.7 years
类型 internet

技术详情

分类 Payload
质量 305.00 kg
干质量 290.00 kg
总质量 305.00 kg
长度 0.20 m
直径 2.80 m
跨度 9.00 m
形状 Box + pan
制造商 SPXS
平台类型 Starlink
阶段状态 In Orbit
所有者/国家 SPXS/US

大型星座

Loading constellations...